Weather in Tyagun

Russia / Altai Krai     53°56′58″N   85°39′29″E
temp.,
°C
wind,
m/s
gust,
m/s
humid.,
%
clouds,
%
prec.,
mm/h
press.,
hPa
HPBL,
m
13 june, sun
sun1301:00+8n268738 0.0 1015112
04:00+6n258419 0.0 101694
07:00+10n25687 0.0 1016168
10:00+16n234588 0.0 10161058
13:00+20nnw233091 0.0 10152354
16:00+19nw544193 0.0 10141677
19:00+14wnw4977100 0.2 1015529
22:00+12nw2595100 0.1 1017198
14 june, mon
mon1401:00+11wsw1299100 0.3 101765
04:00+11w1310092 0.8 1017151
07:00+11n269996 0.8 1018334
10:00+13n358098 0.1 1019815
13:00+18n445789 0.3 10181507
16:00+19n554225 0.1 10181691
19:00+17nne45500 0.1 10181428
22:00+10n22820 0.0 102017
15 june, tue
tue1501:00+9n22840 0.0 102019
04:00+8n22869 0.0 102028
07:00+12nne246616 0.0 1019131
10:00+18nne2443100 0.0 1019893
13:00+21n2336100 0.0 10181781
16:00+22n243777 0.0 10172155
19:00+21w235251 0.0 10161190
22:00+13nw119247 0.9 101714
16 june, wed
wed1601:00+12n1192100 0.9 101710
04:00+11s119473 0.0 101611
07:00+14sw11958 0.0 101762
10:00+20wsw22664 0.1 1016667
13:00+24wsw324437 0.2 10151993
16:00+21wsw356193 0.0 1014415
19:00+21sw23650 0.1 1014539
22:00+16s11900 0.1 101411
17 june, thu
thu1701:00+14s119110 0.1 101414
04:00+13s229521 0.0 101321
07:00+16ssw248426 0.0 1013130
10:00+22sw345816 0.0 1012744
13:00+25wsw444914 0.0 10111754
16:00+26wsw444670 0.0 10102077
19:00+24wsw33584 0.1 10091137
22:00+16sw119315 1.6 101011